GNOMES-4

operational
NORAD ID: 58462 Int'l Des: 2023-185 Owner: PLANQ Country: US
LEOCIRCULARRETROGRADESSO

GNOMES-4について

説明を読み込み中...

リアルタイム位置

3D地球を読み込み中...

次回通過

高度履歴

Altitude vs Time

uPlot chart will show altitude changes over time

軌道要素

1 58462U 23185A 26063.18898529 .00006992 00000-0 56419-3 0 9995
2 58462 97.5121 124.0947 0009145 304.6040 55.4321 15.00131678123542
Epoch: Mar 4, 2026 • Age: 21 hours

現在のステータス

高度 583.6 km
速度 7.57 km/s
衛星直下点 63.02°N, 158.85°W
打ち上げ日 Dec 1, 2023
運用期間 2.2 years
タイプ other

技術仕様

分類 Payload
質量 30.00 kg
乾燥質量 30.00 kg
総質量 30.00 kg
長さ 0.30 m
直径 0.30 m
スパン 0.60 m
形状 Box + 2 pan
製造者 RAYBL
バスタイプ XSat
フェーズステータス In Orbit
所有者/国 PLANQ/US

大規模コンステレーション

Loading constellations...